{"data":{"norad_id":68264,"intl_designator":"2026-055C","name":"STARLINK-37163","alt_names":[],"object_type":"PAYLOAD","status":"ACTIVE","operator":null,"country":"US","launch_date":"2026-03-19","launch_site_code":"AFETR","launch_vehicle":null,"mission":null,"orbit_class":"UNKNOWN","rcs_meters":null,"size_class":null,"mass_kg":null,"dimensions":null,"purposes":["comms"],"wikipedia_slug":null,"has_3d_model":false,"image_url":null,"decayed_at":null,"tle_current":{"epoch":"2026-09-20T04:24:15.354720Z","epoch_age_seconds":78434,"freshness":"FRESH","line1":"1 68264U 26055C   26263.18351105  .00010132  00000+0  31077-3 0  9994","line2":"2 68264  53.1573 131.2660 0001190  79.7909 280.3227 15.34381486 29775","mean_motion":15.34381486,"eccentricity":0.000119,"inclination_deg":53.1573,"raan_deg":131.266,"arg_perigee_deg":79.7909,"mean_anomaly_deg":280.3227,"bstar":0.00031077,"rev_number":2977,"period_min":93.848890457741,"perigee_km":461.94420173313,"apogee_km":463.57233480698,"semimajor_km":6840.8952682701,"source":"CELESTRAK","updated_at":"2026-09-20T09:00:43.846070Z"}}}